Location: Rotheul
(50.2849°N, 11.2349°E)
Time: 11:52:36
(UTC+01:00)

Envisat - Visible Passes

Search period start: 21 February 2019 00:00
Search period end: 03 March 2019 00:00
Orbit: 764 x 766 km, 98.2° (Epoch: 21 February)

Date Brightness Start Highest point End Pass type
(mag) Time Alt. Az. Time Alt. Az. Time Alt. Az.
21 Feb 6.4 06:20:30 10° ENE 06:22:47 13° E 06:25:02 10° ESE visible
21 Feb 4.0 19:16:59 10° S 19:21:54 49° W 19:26:50 10° NNW visible
22 Feb 3.0 18:39:58 10° SSE 18:45:04 85° ENE 18:50:11 10° NNW visible
22 Feb 5.9 20:21:49 10° WSW 20:24:47 15° W 20:27:45 10° NW visible
23 Feb 4.9 19:43:10 10° SSW 19:47:36 30° W 19:52:05 10° NNW visible
24 Feb 6.7 06:10:55 10° ENE 06:11:22 10° E 06:11:50 10° E visible
24 Feb 3.6 19:05:38 10° S 19:10:38 60° WSW 19:15:42 10° NNW visible
25 Feb 3.0 18:28:49 10° SSE 18:33:52 70° ENE 18:38:57 10° N visible
25 Feb 5.7 20:09:52 10° SW 20:13:25 19° W 20:16:59 10° NW visible
26 Feb 4.6 19:31:38 10° SSW 19:36:18 37° W 19:41:01 10° NNW visible
27 Feb 3.3 18:54:20 10° S 18:59:24 74° WSW 19:04:31 10° NNW visible
27 Feb 6.2 20:37:47 10° WSW 20:39:20 11° W 20:40:54 10° WNW visible
28 Feb 3.1 18:17:43 10° SSE 18:22:41 57° ENE 18:27:41 10° N visible
28 Feb 5.4 19:58:05 10° SW 20:02:05 23° W 20:06:06 10° NW visible
01 Mar 6.3 06:23:19 10° NE 06:25:57 14° E 06:28:35 10° ESE visible
01 Mar 4.2 19:20:11 10° S 19:25:02 45° W 19:29:55 10° NNW visible
02 Mar 3.0 18:43:05 10° SSE 18:48:11 89° WSW 18:53:18 10° NNW visible
02 Mar 6.0 20:25:18 10° WSW 20:27:57 14° W 20:30:37 10° NW visible
